Weather History for Flag Island, MN

Change the Weather History Date:

Thursday, July 4, 2013

  Actual Average Record
Temperature  
Mean Temperature 74 °F -  
Max Temperature 78 °F 68 °F 78 °F (2011)
Min Temperature 69 °F 56 °F 51 °F (1997)
Cooling Degree Days 8    
Growing Degree Days 24 (Base 50)    
Moisture  
Dew Point 63 °F    
Average Humidity 71    
Maximum Humidity 83    
Minimum Humidity 53    
Precipitation  
Precipitation 0.00 in - - ()
Sea Level Pressure  
Sea Level Pressure 29.77 in    
Wind  
Wind Speed 6 mph (South)    
Max Wind Speed 13 mph    
Max Gust Speed 17 mph    
Visibility 4 miles    
Events      
Averages and records for this station are not official NWS values.
T = Trace of Precipitation, MM = Missing Value Source: NWS Daily Summary

Daily Weather History Graph

Daily Weather History Graph

Search for Another Location

Airport:

Trip Planner

Search our weather history database for the weather conditions in past years. The results will help you decide how hot, cold, wet, or windy it might be!

Date:

Astronomy

Jul. 04, 2013 Rise Set
Actual Time 5:20 AM CDT 9:27 PM CDT
Civil Twilight 4:37 AM CDT 10:10 PM CDT
Nautical Twilight 3:37 AM CDT 11:10 PM CDT
Astronomical Twilight 1:56 AM CDT 12:51 AM CDT
Moon 2:45 AM CDT (7/4) 6:26 PM CDT (7/4)
Length of Visible Light 17h 32m
Length of Day
16h 07m
Waning Crescent, 11% of the Moon is Illuminated
Jul 4
Waning Crescent
Jul 8
New
Jul 15
First Quarter
Jul 22
Full
Jul 29
Last Quarter

Hourly Weather History & Observations

Time (CDT) Temp. Dew Point Humidity Pressure Visibility Wind Dir Wind Speed Gust Speed Precip Events Conditions
12:13 AM 73.4 °F 64.4 °F 73% 29.84 in 4.0 mi Calm Calm - N/A   Haze
12:34 AM 73.4 °F 62.6 °F 69% 29.83 in 4.0 mi South 4.6 mph - N/A   Haze
12:53 AM 73.4 °F 62.6 °F 69% 29.83 in 4.0 mi SSW 6.9 mph - N/A   Haze
1:13 AM 71.6 °F 62.6 °F 73% 29.83 in 3.0 mi SSW 5.8 mph - N/A   Haze
1:34 AM 71.6 °F 62.6 °F 73% 29.83 in 3.0 mi SSW 6.9 mph - N/A   Haze
1:53 AM 71.6 °F 62.6 °F 73% 29.83 in 3.0 mi SSW 6.9 mph - N/A   Haze
2:13 AM 71.6 °F 62.6 °F 73% 29.83 in 3.0 mi SSW 6.9 mph - N/A   Haze
2:34 AM 71.6 °F 62.6 °F 73% 29.83 in 3.0 mi SSW 3.5 mph - N/A   Haze
2:53 AM 71.6 °F 62.6 °F 73% 29.83 in 3.0 mi SSW 4.6 mph - N/A   Haze
3:13 AM 71.6 °F 60.8 °F 69% 29.83 in 1.8 mi SSW 8.1 mph - N/A   Haze
3:34 AM 69.8 °F 60.8 °F 73% 29.82 in 0.2 mi SSW 6.9 mph - N/A   Haze
3:53 AM 69.8 °F 60.8 °F 73% 29.82 in 0.5 mi SSW 4.6 mph - N/A   Haze
4:13 AM 69.8 °F 60.8 °F 73% 29.82 in 0.2 mi SSW 9.2 mph - N/A   Haze
4:34 AM 69.8 °F 59.0 °F 68% 29.81 in 0.2 mi SSW 10.4 mph - N/A   Haze
4:53 AM 69.8 °F 57.2 °F 64% 29.82 in 0.2 mi SW 9.2 mph - N/A   Haze
5:13 AM 69.8 °F 57.2 °F 64% 29.82 in 0.2 mi SW 10.4 mph - N/A   Haze
5:33 AM 69.8 °F 57.2 °F 64% 29.82 in 0.2 mi SW 10.4 mph - N/A   Haze
5:53 AM 69.8 °F 57.2 °F 64% 29.81 in 0.2 mi SSW 10.4 mph - N/A   Haze
6:14 AM 69.8 °F 55.4 °F 60% 29.80 in 0.2 mi SW 12.7 mph 17.3 mph N/A   Haze
6:33 AM 69.8 °F 55.4 °F 60% 29.80 in 0.2 mi SW 11.5 mph - N/A   Haze
6:53 AM 69.8 °F 55.4 °F 60% 29.80 in 0.2 mi SSW 11.5 mph - N/A   Haze
7:14 AM 69.8 °F 55.4 °F 60% 29.80 in 0.2 mi SW 12.7 mph - N/A   Haze
7:33 AM 71.6 °F 55.4 °F 57% 29.80 in 0.2 mi SW 11.5 mph - N/A   Haze
7:53 AM 73.4 °F 55.4 °F 53% 29.80 in 1.0 mi SSW 11.5 mph - N/A   Haze
8:14 AM 73.4 °F 55.4 °F 53% 29.80 in 0.8 mi SSW 12.7 mph 17.3 mph N/A   Haze
8:33 AM 71.6 °F 57.2 °F 60% 29.80 in 0.8 mi SSW 5.8 mph - N/A   Haze
8:53 AM 71.6 °F 57.2 °F 60% 29.80 in 0.8 mi SSW 6.9 mph - N/A   Haze
9:14 AM 73.4 °F 60.8 °F 65% 29.80 in 1.8 mi South 6.9 mph - N/A   Haze
9:33 AM 73.4 °F 60.8 °F 65% 29.79 in 1.8 mi South 9.2 mph - N/A   Haze
9:53 AM 73.4 °F 60.8 °F 65% 29.79 in 3.0 mi South 9.2 mph - N/A   Haze
10:14 AM 73.4 °F 62.6 °F 69% 29.79 in 5.0 mi SSE 6.9 mph - N/A   Haze
10:33 AM 73.4 °F 62.6 °F 69% 29.79 in 5.0 mi South 5.8 mph - N/A   Haze
10:53 AM 73.4 °F 62.6 °F 69% 29.78 in 5.0 mi SSE 5.8 mph - N/A   Haze
11:14 AM 73.4 °F 64.4 °F 73% 29.78 in 5.0 mi SSE 4.6 mph - N/A   Haze
11:33 AM 73.4 °F 66.2 °F 78% 29.78 in 5.0 mi Calm Calm - N/A   Haze
11:53 AM 73.4 °F 66.2 °F 78% 29.77 in 5.0 mi Calm Calm - N/A   Haze
12:14 PM 75.2 °F 66.2 °F 73% 29.77 in 5.0 mi Calm Calm - N/A   Haze
12:33 PM 75.2 °F 66.2 °F 73% 29.76 in 7.0 mi SSE 6.9 mph - N/A   Clear
12:53 PM 75.2 °F 66.2 °F 73% 29.76 in 10.0 mi SSE 8.1 mph - N/A   Clear
1:13 PM 75.2 °F 64.4 °F 69% 29.76 in 10.0 mi SSE 8.1 mph - N/A   Clear
1:34 PM 75.2 °F 66.2 °F 73% 29.76 in 7.0 mi SSE 8.1 mph - N/A   Clear
1:53 PM 77.0 °F 66.2 °F 69% 29.76 in 7.0 mi South 5.8 mph - N/A   Clear
2:13 PM 75.2 °F 66.2 °F 73% 29.75 in 5.0 mi South 4.6 mph - N/A   Haze
2:33 PM 75.2 °F 66.2 °F 73% 29.75 in 7.0 mi SSE 6.9 mph - N/A   Clear
2:53 PM 75.2 °F 64.4 °F 69% 29.74 in 7.0 mi SSE 8.1 mph - N/A   Clear
3:13 PM 75.2 °F 66.2 °F 73% 29.74 in 7.0 mi SSE 9.2 mph - N/A   Clear
3:34 PM 75.2 °F 66.2 °F 73% 29.74 in 7.0 mi SSE 8.1 mph - N/A   Clear
3:53 PM 77.0 °F 64.4 °F 65% 29.73 in 7.0 mi SSE 9.2 mph - N/A   Clear
4:13 PM 77.0 °F 66.2 °F 69% 29.73 in 7.0 mi SSE 6.9 mph - N/A   Clear
4:33 PM 77.0 °F 68.0 °F 74% 29.73 in 5.0 mi SSE 4.6 mph - N/A   Haze
4:53 PM 75.2 °F 66.2 °F 73% 29.73 in 7.0 mi South 4.6 mph - N/A   Clear
5:14 PM 78.8 °F 66.2 °F 65% 29.72 in 7.0 mi South 5.8 mph - N/A   Clear
5:33 PM 75.2 °F 66.2 °F 73% 29.72 in 5.0 mi SSE 5.8 mph - N/A   Haze
5:53 PM 75.2 °F 68.0 °F 78% 29.72 in 7.0 mi SSE 4.6 mph - N/A   Clear
6:13 PM 77.0 °F 66.2 °F 69% 29.71 in 7.0 mi SSE 5.8 mph - N/A   Clear
6:33 PM 77.0 °F 69.8 °F 78% 29.71 in 5.0 mi SSE 5.8 mph - N/A   Haze
6:54 PM 77.0 °F 66.2 °F 69% 29.70 in 5.0 mi SSE 5.8 mph - N/A   Haze
7:13 PM 77.0 °F 68.0 °F 74% 29.70 in 5.0 mi South 3.5 mph - N/A   Haze
7:33 PM 75.2 °F 68.0 °F 78% 29.70 in 4.0 mi South 5.8 mph - N/A   Haze
7:54 PM 75.2 °F 68.0 °F 78% 29.70 in 5.0 mi South 4.6 mph - N/A   Haze
8:13 PM 75.2 °F 66.2 °F 73% 29.70 in 5.0 mi South 6.9 mph - N/A   Haze
8:33 PM 75.2 °F 68.0 °F 78% 29.70 in 5.0 mi South 4.6 mph - N/A   Haze
8:54 PM 73.4 °F 68.0 °F 83% 29.70 in 5.0 mi South 4.6 mph - N/A   Haze
9:13 PM 73.4 °F 68.0 °F 83% 29.70 in 5.0 mi South 3.5 mph - N/A   Haze
9:33 PM 73.4 °F 68.0 °F 83% 29.70 in 5.0 mi South 3.5 mph - N/A   Haze
9:54 PM 73.4 °F 68.0 °F 83% 29.70 in 5.0 mi South 3.5 mph - N/A   Haze
10:13 PM 73.4 °F 68.0 °F 83% 29.71 in 3.0 mi South 3.5 mph - N/A   Haze
10:33 PM 73.4 °F 66.2 °F 78% 29.71 in 2.5 mi South 3.5 mph - N/A   Haze
10:54 PM 73.4 °F 66.2 °F 78% 29.71 in 2.5 mi SSE 4.6 mph - N/A   Haze
11:13 PM 73.4 °F 66.2 °F 78% 29.71 in 1.8 mi South 5.8 mph - N/A   Haze
11:33 PM 73.4 °F 66.2 °F 78% 29.70 in 1.2 mi South 5.8 mph - N/A   Haze
11:54 PM 73.4 °F 66.2 °F 78% 29.70 in 1.0 mi South 4.6 mph - N/A   Haze